Location: The Saddle
(36.8333°N, 80.3417°W)
Time: 13:34:57
(UTC-04:00)

Courier 1B - Pass Details

Date: 19 September 2024
Orbit: 962 x 1208 km, 28.3° (Epoch: 06 October)

Event Time Altitude Azimuth Distance (km) Brightness Sun altitude
Rises 18:24:35 0° 265° (W) 3,942 13.0 10.6°
Reaches altitude 10° 18:27:49 10° 253° (WSW) 3,021 12.5 10.0°
Maximum altitude 18:33:45 26° 201° (SSW) 2,130 9.7 8.8°
Drops below altitude 10° 18:39:52 10° 148° (SSE) 3,119 9.9 7.6°
Sets 18:43:17 0° 136° (SE) 4,095 10.4 6.9°
